[[{"header":{"parameterUnit":"m.s-1","parameterCategory":1,"la1":30.2991,"la2":30.254,"lo1":-89.0895,"lo2":-89.0444,"dy":0.0017,"dx":0.0017,"nx":28,"ny":28,"refTime":"2025-11-09T09:00:00:Z","depth":0,"parameterNumber":2,"parameterNumberName":"U-component_of_WINDS"},"data":[0,0,0,0,0,0,0,0,0,0,0,0,0,0,0,0,0,0,0,0,0,0,0,0,0,0,0,0,0,0,0,0,0,0,0,0,0,0,0,0,0,0,0,0,0,0,0,0,0,0,0,0,0,0,0,0,0,0,2.5305,2.5306,0,2.5432,2.5434,2.5435,2.5458,2.5457,2.5456,2.5455,2.5589,2.5593,2.5597,0,0,0,0,0,0,0,0,0,0,0,0,0,2.5083,2.5087,2.5305,2.5306,2.5308,2.5432,2.5434,2.5436,2.5458,2.5457,2.5455,2.5454,2.5587,2.5592,2.5598,0,0,0,0,0,0,0,0,0,0,0,0,0,2.5192,2.5088,2.5304,2.5334,2.5338,2.5432,2.5434,2.5436,2.5458,2.5457,2.5455,2.5454,2.5585,2.5592,2.5599,2.5673,0,0,2.562,2.5622,0,0,0,0,0,0,0,0,2.5185,2.52,2.5328,2.5332,2.5337,2.5427,2.5405,2.5516,2.5459,2.5413,2.5455,2.5453,2.5536,2.5547,2.5575,2.5679,2.5685,2.562,2.5624,2.5627,2.5629,0,0,0,0,0,0,0,2.5178,2.5194,2.5355,2.533,2.5335,2.5342,2.5355,2.5426,2.5482,2.5417,2.5418,2.5433,2.5539,2.5568,2.5578,2.5687,2.562,2.5626,2.563,2.5633,2.586,2.5861,0,0,0,0,0,0,2.5165,2.5188,2.5351,2.5359,2.5255,2.5347,2.5362,2.54,2.5481,2.5492,2.5434,2.5434,2.5557,2.557,2.5583,2.5676,2.5627,2.5634,2.5638,2.5858,2.586,2.5862,0,0,0,0,0,0,2.516,2.5179,2.5346,2.5274,2.5296,2.5352,2.5395,2.5403,2.5433,2.5495,2.5505,2.5454,2.5556,2.5573,2.565,2.5681,2.5637,2.5643,2.5855,2.5858,2.5861,2.5862,0,0,0,0,0,0,2.5153,2.5177,2.5205,2.5275,2.53,2.5411,2.5396,2.5407,2.5444,2.5445,2.5516,2.5526,2.5556,2.564,2.5657,2.5689,2.5648,2.5853,2.5857,2.586,2.5859,2.5864,2.5868,0,0,0,0,0,2.5145,2.5201,2.5207,2.5226,2.5336,2.5412,2.5427,2.5459,2.5447,2.5476,2.5516,2.5524,2.5674,2.5648,2.5667,2.5702,2.5851,2.5856,2.586,2.5857,2.5863,2.5868,0,0,0,0,0,0,2.5135,2.5211,2.5218,2.5297,2.5348,2.5416,2.5454,2.5465,2.5521,2.5519,2.5558,2.5574,2.5649,2.5683,2.5652,2.5778,2.5762,2.577,2.5753,2.576,2.5764,2.5755,2.5654,0,0,0,0,0,2.5142,2.5197,2.526,2.5324,2.5349,2.5397,2.5431,2.5452,2.5507,2.5528,2.5574,2.5627,2.5687,2.5725,2.5783,2.5864,2.588,2.5897,2.5902,2.5906,2.5913,2.5959,2.5967,2.5876,2.5876,2.5876,0,0,2.5157,2.5205,2.5237,2.5323,2.5365,2.5422,2.5415,2.5475,2.5518,2.5538,2.5613,2.5648,2.5711,2.579,2.5827,2.5821,2.5941,2.5911,2.5913,2.5919,2.5964,2.5972,2.598,2.5879,2.5879,2.5878,0,0,2.5213,2.5255,2.5313,2.5355,2.5417,2.5449,2.5463,2.5529,2.5553,2.5629,2.5645,2.5697,2.5798,2.5841,2.5877,2.5949,2.596,2.5967,2.5992,2.6036,2.6043,2.605,2.6076,2.6085,2.5974,2.5974,2.5974,0,2.5224,2.531,2.5342,2.5401,2.5439,2.5458,2.5518,2.5557,2.5636,2.5662,2.5653,2.578,2.5824,2.5914,2.5931,2.5959,2.5977,2.596,2.6039,2.6046,2.6053,2.6079,2.6088,2.5975,2.5974,2.5974,2.5974,0,2.532,2.5379,2.5419,2.5493,2.5535,2.5594,2.5636,2.5675,2.5692,2.5724,2.5802,2.5854,2.5923,2.5946,2.5963,2.6039,2.6033,2.6031,2.6016,2.6062,2.6086,2.6096,2.5975,2.5975,2.5975,2.5975,0,0,2.5375,2.5465,2.548,2.5514,2.5584,2.5631,2.5691,2.5757,2.579,2.5844,2.5896,2.5981,2.598,2.602,2.6043,2.6081,2.6136,2.6075,2.6077,2.6085,2.6223,2.6224,2.6235,2.6143,2.6145,2.6146,2.6218,0,2.544,2.5547,2.5577,2.5668,2.5723,2.5742,2.5795,2.5844,2.5876,2.5928,2.5964,2.6024,2.6017,2.6042,2.6081,2.6121,2.6164,2.6116,2.6193,2.6195,2.6177,2.6248,2.6249,2.6314,2.6228,2.6229,2.6231,0,2.5531,2.5585,2.5681,2.5744,2.5768,2.5815,2.5878,2.5927,2.5984,2.6004,2.6049,2.6068,2.6132,2.6113,2.6203,2.6169,2.6202,2.6227,2.623,2.6239,2.6216,2.6259,2.6336,2.6345,2.6246,2.6245,2.6244,0,2.5561,2.5658,2.5728,2.5757,2.5832,2.5864,2.5898,2.5952,2.599,2.6046,2.6071,2.6134,2.6168,2.6217,2.6253,2.6235,2.634,2.6323,2.636,2.6359,2.6382,2.638,2.6465,2.6402,2.6402,2.6402,2.6401,0,2.5631,2.5689,2.5743,2.5786,2.5852,2.5886,2.5951,2.5985,2.6034,2.6084,2.6105,2.6152,2.6196,2.625,2.6278,2.6349,2.6364,2.6384,2.6391,2.6382,2.638,2.6405,2.6401,2.6404,2.6404,2.6403,2.6403,0,2.5677,2.5715,2.5792,2.5857,2.5875,2.592,2.5976,2.6019,2.6051,2.6115,2.6132,2.6184,2.6248,2.6288,2.637,2.6389,2.6467,2.6472,2.6447,2.645,2.6485,2.6481,2.659,2.6606,2.6531,2.6532,2.6532,0,2.5719,2.5764,2.5833,2.5868,2.5901,2.5957,2.5996,2.6032,2.6071,2.6139,2.6174,2.6239,2.6293,2.6395,2.644,2.6503,2.651,2.6544,2.652,2.651,2.6511,2.6508,2.6513,2.6548,2.6548,2.6549,2.6549,0,2.5791,2.5807,2.5861,2.5922,2.5967,2.6017,2.6067,2.6094,2.6139,2.6182,2.6247,2.6289,2.6372,2.6437,2.6503,2.6539,2.6552,2.6556,2.6568,2.656,2.6544,2.6554,2.6458,2.6554,2.6553,2.6553,2.6553,2.6553,2.5837,2.5878,2.5932,2.5992,2.6033,2.6079,2.6122,2.6159,2.6214,2.6283,2.6301,2.637,2.6426,2.6516,2.6553,2.6608,2.6603,2.662,2.6625,2.6628,2.6629,2.6535,2.662,2.662,2.662,2.662,2.662,0,2.591,2.5946,2.6,2.6068,2.6115,2.6122,2.6177,2.6217,2.6276,2.6326,2.6379,2.6454,2.6516,2.6566,2.6631,2.6665,2.6673,2.6681,2.6679,2.6687,2.6629,2.6613,2.6674,2.6674,2.6674,2.6674,2.6674,2.6674,2.5953,2.6023,2.6045,2.6135,2.6171,2.6237,2.6268,2.6311,2.6352,2.6434,2.6485,2.6517,2.6567,2.6636,2.6694,2.6707,2.673,2.6738,2.6752,2.6697,2.6691,2.6686,2.667,2.6742,2.6742,2.6805,2.6806,2.6806]},{"header":{"parameterUnit":"m.s-1","parameterCategory":1,"la1":30.2991,"la2":30.254,"lo1":-89.0895,"lo2":-89.0444,"dy":0.0017,"dx":0.0017,"nx":28,"ny":28,"refTime":"2025-11-09T09:00:00:Z","depth":0,"parameterNumber":3,"parameterNumberName":"V-component_of_WINDS"},"data":[0,0,0,0,0,0,0,0,0,0,0,0,0,0,0,0,0,0,0,0,0,0,0,0,0,0,0,0,0,0,0,0,0,0,0,0,0,0,0,0,0,0,0,0,0,0,0,0,0,0,0,0,0,0,0,0,0,0,0.5095,0.5095,0,0.5118,0.5118,0.5118,0.5114,0.5113,0.5113,0.5113,0.5138,0.5139,0.514,0,0,0,0,0,0,0,0,0,0,0,0,0,0.5048,0.5049,0.5095,0.5095,0.5095,0.5118,0.5118,0.5119,0.5114,0.5113,0.5113,0.5112,0.5137,0.5139,0.514,0,0,0,0,0,0,0,0,0,0,0,0,0,0.5069,0.5049,0.5095,0.5096,0.5096,0.5118,0.5118,0.5119,0.5114,0.5113,0.5113,0.5112,0.5137,0.5139,0.514,0.5163,0,0,0.5145,0.5146,0,0,0,0,0,0,0,0,0.5068,0.5071,0.5095,0.5096,0.5096,0.5112,0.5111,0.5134,0.5114,0.5107,0.5112,0.5112,0.513,0.5132,0.5138,0.5164,0.5165,0.5145,0.5146,0.5147,0.5147,0,0,0,0,0,0,0,0.5067,0.507,0.5104,0.5096,0.5096,0.5095,0.5098,0.5115,0.5122,0.5108,0.5107,0.511,0.513,0.5136,0.5138,0.5166,0.5145,0.5147,0.5148,0.5148,0.5212,0.5213,0,0,0,0,0,0,0.5065,0.5069,0.5103,0.5105,0.508,0.5097,0.5099,0.5108,0.5122,0.5123,0.5111,0.511,0.5134,0.5137,0.5139,0.5167,0.5147,0.5148,0.5149,0.5212,0.5213,0.5213,0,0,0,0,0,0,0.5064,0.5068,0.5102,0.5087,0.5091,0.5098,0.5108,0.5109,0.5115,0.5124,0.5125,0.5116,0.5133,0.5137,0.5157,0.5168,0.5149,0.5151,0.5211,0.5212,0.5213,0.5223,0,0,0,0,0,0,0.5062,0.5067,0.5076,0.5087,0.5092,0.5119,0.5108,0.5109,0.5117,0.5117,0.5129,0.5131,0.5133,0.5155,0.5159,0.517,0.5152,0.521,0.5211,0.5213,0.5222,0.5225,0.5227,0,0,0,0,0,0.5061,0.5078,0.5076,0.508,0.5102,0.512,0.5123,0.5125,0.5118,0.5127,0.5133,0.513,0.5166,0.5157,0.5161,0.5173,0.5209,0.5211,0.5212,0.5221,0.5224,0.5227,0,0,0,0,0,0,0.5068,0.5079,0.5078,0.5099,0.5109,0.5119,0.513,0.5128,0.514,0.5139,0.5142,0.5145,0.5165,0.5171,0.5161,0.5196,0.5187,0.5189,0.5192,0.5195,0.5197,0.5196,0.5153,0,0,0,0,0,0.5073,0.5085,0.5095,0.5113,0.5117,0.5123,0.5131,0.5132,0.5142,0.5146,0.5153,0.5164,0.5177,0.5186,0.5199,0.5223,0.5226,0.5233,0.5236,0.5238,0.524,0.5254,0.5257,0.5219,0.5219,0.5219,0,0,0.5081,0.5089,0.5097,0.5114,0.5122,0.5136,0.5126,0.5141,0.5152,0.5148,0.5168,0.5174,0.5185,0.5207,0.5217,0.5213,0.5251,0.524,0.5241,0.5243,0.5256,0.5259,0.5263,0.522,0.522,0.522,0,0,0.5105,0.5111,0.5127,0.5135,0.5146,0.515,0.5154,0.5165,0.5168,0.5188,0.5186,0.5198,0.5222,0.523,0.5238,0.5264,0.5263,0.5269,0.5282,0.5295,0.5298,0.53,0.531,0.5314,0.5271,0.5271,0.5271,0,0.5114,0.5135,0.5136,0.5151,0.5159,0.5156,0.5173,0.518,0.5195,0.5201,0.5196,0.5225,0.5233,0.5257,0.5264,0.527,0.5275,0.5267,0.5297,0.53,0.5302,0.5312,0.5316,0.5272,0.5271,0.5271,0.5271,0,0.5146,0.516,0.5172,0.5186,0.5196,0.5211,0.5216,0.5225,0.5225,0.5229,0.525,0.5259,0.5274,0.5279,0.528,0.5304,0.5301,0.5296,0.5287,0.5307,0.5316,0.532,0.5273,0.5272,0.5272,0.5272,0,0,0.5175,0.519,0.5195,0.5201,0.5213,0.5225,0.5241,0.5255,0.5263,0.5274,0.5287,0.5307,0.5303,0.5312,0.5313,0.5324,0.5346,0.5318,0.5319,0.5324,0.5374,0.5377,0.5382,0.5344,0.5345,0.5345,0.5373,0,0.52,0.5228,0.5229,0.5255,0.5268,0.5265,0.5279,0.5289,0.5293,0.5306,0.5311,0.5325,0.5318,0.5323,0.5334,0.5341,0.5356,0.5339,0.5358,0.5359,0.5356,0.5386,0.539,0.5416,0.5376,0.5377,0.5377,0,0.5233,0.5244,0.527,0.5281,0.5287,0.5299,0.5313,0.5324,0.5335,0.5338,0.5347,0.5347,0.5364,0.5353,0.5377,0.5366,0.5374,0.5378,0.5379,0.5381,0.537,0.539,0.5424,0.5428,0.5383,0.5382,0.5382,0,0.5252,0.5274,0.5292,0.5298,0.5311,0.532,0.5326,0.5336,0.5344,0.5356,0.5362,0.5376,0.5384,0.5395,0.5399,0.5391,0.5423,0.5412,0.5426,0.5426,0.5433,0.5433,0.5469,0.5438,0.5437,0.5437,0.5437,0,0.528,0.5296,0.5301,0.5313,0.5331,0.5333,0.5352,0.5357,0.5366,0.5379,0.5378,0.539,0.5395,0.5408,0.5411,0.5431,0.5434,0.5437,0.5438,0.5438,0.5437,0.5443,0.5442,0.5438,0.5438,0.5438,0.5438,0,0.5304,0.5308,0.5329,0.5339,0.5342,0.5356,0.5365,0.5376,0.538,0.5397,0.5401,0.5408,0.5424,0.5428,0.5447,0.545,0.5473,0.5472,0.5469,0.5469,0.5483,0.5482,0.5525,0.5531,0.5495,0.5495,0.5495,0,0.5322,0.5335,0.5346,0.5355,0.5361,0.5375,0.5383,0.5386,0.5395,0.5409,0.5419,0.5434,0.5446,0.5472,0.5479,0.5494,0.5493,0.5507,0.5495,0.5495,0.5494,0.5494,0.5495,0.551,0.551,0.551,0.5511,0,0.5353,0.5355,0.5367,0.538,0.5391,0.5401,0.5412,0.5419,0.5423,0.5434,0.5449,0.5459,0.5478,0.5494,0.5509,0.5515,0.5514,0.5514,0.5518,0.5518,0.5517,0.5518,0.5476,0.5513,0.5513,0.5513,0.5513,0.5513,0.5375,0.5386,0.5397,0.5411,0.5419,0.5428,0.544,0.5445,0.5458,0.5474,0.5475,0.5492,0.5503,0.5523,0.5531,0.5545,0.5541,0.5546,0.5548,0.5549,0.5551,0.5514,0.5547,0.5547,0.5547,0.5547,0.5547,0,0.5407,0.5413,0.5426,0.544,0.5452,0.5449,0.546,0.547,0.5485,0.5495,0.5507,0.5526,0.5541,0.5549,0.5564,0.5574,0.5574,0.5578,0.5578,0.558,0.5553,0.5548,0.5578,0.5578,0.5578,0.5578,0.5578,0.5578,0.5424,0.5443,0.5446,0.5469,0.5476,0.5492,0.5499,0.5509,0.5517,0.5537,0.555,0.5555,0.5564,0.558,0.5594,0.5597,0.5603,0.5607,0.5609,0.5584,0.5581,0.5578,0.5574,0.5608,0.5608,0.5634,0.5635,0.5635]}]]